| time (UTC) | temp F | wind direction | speed MPH | gust MPH | rain 1hr in | rain 24hr in | rain mn in | humidity % | barometer mb |
| 20260505014504 | 62 | 264 | 4.0 | 10.0 | 0.00 | 0.11 | 0.06 | 72 | 1022.9 |
| 20260505014004 | 62 | 277 | 4.0 | 8.0 | 0.00 | 0.11 | 0.06 | 73 | 1022.9 |
| 20260505013504 | 61 | 269 | 4.0 | 10.0 | 0.00 | 0.11 | 0.06 | 73 | 1022.9 |
| 20260505013004 | 61 | 267 | 4.0 | 10.0 | 0.00 | 0.11 | 0.06 | 73 | 1022.8 |
| 20260505012504 | 61 | 284 | 4.0 | 9.0 | 0.00 | 0.11 | 0.06 | 75 | 1022.8 |
| 20260505012004 | 61 | 284 | 5.0 | 6.0 | 0.00 | 0.11 | 0.06 | 80 | 1022.7 |
| 20260505011504 | 60 | 261 | 5.0 | 9.0 | 0.00 | 0.11 | 0.06 | 80 | 1022.7 |
| 20260505011004 | 60 | 260 | 5.0 | 10.0 | 0.00 | 0.11 | 0.06 | 80 | 1022.8 |
| 20260505010525 | 61 | 273 | 4.0 | 10.0 | 0.00 | 0.12 | 0.06 | 83 | 1022.7 |
| 20260505010025 | 60 | 281 | 4.0 | 8.0 | 0.00 | 0.13 | 0.06 | 84 | 1022.7 |
| 20260505005504 | 60 | 258 | 5.0 | 8.0 | 0.00 | 0.13 | 0.06 | 85 | 1022.7 |
| 20260505005004 | 60 | 279 | 5.0 | 9.0 | 0.00 | 0.13 | 0.06 | 87 | 1022.6 |
| 20260505004504 | 60 | 296 | 5.0 | 9.0 | 0.00 | 0.13 | 0.06 | 88 | 1022.6 |
| 20260505004004 | 59 | 294 | 4.0 | 8.0 | 0.00 | 0.13 | 0.06 | 89 | 1022.5 |
| 20260505003504 | 59 | 299 | 4.0 | 8.0 | 0.00 | 0.13 | 0.06 | 89 | 1022.5 |
| 20260505003004 | 59 | 275 | 4.0 | 8.0 | 0.00 | 0.13 | 0.06 | 90 | 1022.5 |
| 20260505002525 | 59 | 261 | 3.0 | 9.0 | 0.00 | 0.13 | 0.06 | 90 | 1022.5 |
| 20260505002004 | 59 | 250 | 3.0 | 9.0 | 0.00 | 0.13 | 0.06 | 91 | 1022.4 |
| 20260505001504 | 58 | 241 | 2.0 | 8.0 | 0.00 | 0.13 | 0.06 | 92 | 1022.3 |
| 20260505001004 | 58 | 251 | 1.0 | 5.0 | 0.00 | 0.13 | 0.06 | 92 | 1022.3 |
| 20260505000504 | 59 | 262 | 2.0 | 6.0 | 0.00 | 0.13 | 0.06 | 92 | 1022.3 |
| 20260505000004 | 58 | 263 | 2.0 | 6.0 | 0.00 | 0.13 | 0.06 | 93 | 1022.3 |
| 20260504235504 | 58 | 267 | 1.0 | 5.0 | 0.00 | 0.13 | 0.06 | 93 | 1022.2 |
| 20260504235004 | 58 | 267 | 1.0 | 5.0 | 0.00 | 0.13 | 0.06 | 93 | 1022.2 |
| 20260504234504 | 58 | 262 | 1.0 | 5.0 | 0.00 | 0.13 | 0.06 | 93 | 1022.1 |
| 20260504234004 | 58 | 259 | 0.0 | 5.0 | 0.00 | 0.13 | 0.06 | 93 | 1022.1 |
| 20260504233504 | 58 | 278 | 0.0 | 1.0 | 0.00 | 0.13 | 0.06 | 93 | 1022.1 |
| 20260504233004 | 58 | 262 | 0.0 | 1.0 | 0.00 | 0.13 | 0.06 | 93 | 1022.1 |
| 20260504232525 | 58 | 249 | 0.0 | 3.0 | 0.00 | 0.13 | 0.06 | 93 | 1022.2 |
| 20260504232004 | 58 | 241 | 1.0 | 3.0 | 0.00 | 0.13 | 0.06 | 93 | 1022.1 |
| 20260504231504 | 58 | 231 | 1.0 | 5.0 | 0.00 | 0.13 | 0.06 | 93 | 1022.1 |
| 20260504231004 | 57 | 218 | 1.0 | 5.0 | 0.00 | 0.13 | 0.06 | 93 | 1022.1 |
| 20260504230504 | 57 | 131 | 0.0 | 5.0 | 0.00 | 0.13 | 0.06 | 93 | 1022.0 |
| 20260504230025 | 57 | 122 | 0.0 | 4.0 | 0.00 | 0.13 | 0.06 | 93 | 1022.0 |
| 20260504225504 | 57 | 128 | 0.0 | 3.0 | 0.00 | 0.13 | 0.06 | 93 | 1021.9 |
| 20260504225025 | 57 | 0 | 0.0 | 0.0 | 0.00 | 0.13 | 0.06 | 93 | 1021.8 |
| 20260504224504 | 56 | 0 | 0.0 | 0.0 | 0.00 | 0.13 | 0.06 | 93 | 1021.7 |
| 20260504224025 | 56 | 0 | 0.0 | 0.0 | 0.00 | 0.16 | 0.06 | 93 | 1021.8 |
| 20260504223504 | 56 | 0 | 0.0 | 0.0 | 0.00 | 0.21 | 0.06 | 93 | 1021.7 |
| 20260504223004 | 56 | 0 | 0.0 | 0.0 | 0.00 | 0.30 | 0.06 | 93 | 1021.6 |
| 20260504222525 | 56 | 0 | 0.0 | 0.0 | 0.00 | 0.30 | 0.06 | 93 | 1021.6 |
| 20260504222004 | 55 | 17 | 0.0 | 1.0 | 0.01 | 0.30 | 0.06 | 93 | 1021.5 |
| 20260504221525 | 55 | 17 | 0.0 | 1.0 | 0.01 | 0.30 | 0.06 | 93 | 1021.5 |
| 20260504221004 | 55 | 17 | 0.0 | 1.0 | 0.01 | 0.31 | 0.06 | 93 | 1021.5 |
| 20260504220504 | 55 | 0 | 0.0 | 0.0 | 0.01 | 0.36 | 0.06 | 93 | 1021.5 |
| 20260504220004 | 55 | 0 | 0.0 | 0.0 | 0.01 | 0.37 | 0.06 | 93 | 1021.4 |
| 20260504215504 | 55 | 242 | 1.0 | 3.0 | 0.01 | 0.38 | 0.06 | 93 | 1021.3 |
| 20260504215004 | 56 | 221 | 1.0 | 5.0 | 0.01 | 0.43 | 0.06 | 93 | 1021.3 |
| 20260504214504 | 56 | 202 | 1.0 | 8.0 | 0.01 | 0.46 | 0.06 | 93 | 1021.2 |
| 20260504214004 | 55 | 193 | 0.0 | 8.0 | 0.01 | 0.47 | 0.06 | 93 | 1021.1 |
| 20260504213504 | 55 | 156 | 0.0 | 3.0 | 0.01 | 0.49 | 0.06 | 93 | 1021.1 |
| 20260504213004 | 55 | 146 | 0.0 | 3.0 | 0.01 | 0.49 | 0.06 | 93 | 1021.1 |
| 20260504212504 | 55 | 132 | 1.0 | 1.0 | 0.01 | 0.49 | 0.06 | 93 | 1021.0 |
| 20260504212004 | 54 | 132 | 1.0 | 5.0 | 0.00 | 0.48 | 0.05 | 93 | 1020.9 |
| 20260504211525 | 54 | 132 | 1.0 | 5.0 | 0.00 | 0.49 | 0.05 | 93 | 1020.9 |
| 20260504211004 | 54 | 132 | 1.0 | 4.0 | 0.00 | 0.51 | 0.05 | 93 | 1020.9 |
| 20260504210504 | 54 | 132 | 1.0 | 3.0 | 0.00 | 0.52 | 0.05 | 93 | 1020.8 |
| 20260504210004 | 54 | 132 | 0.0 | 3.0 | 0.00 | 0.53 | 0.05 | 93 | 1020.7 |
| 20260504205504 | 54 | 132 | 0.0 | 3.0 | 0.02 | 0.53 | 0.05 | 93 | 1020.6 |
| 20260504205004 | 54 | 132 | 1.0 | 1.0 | 0.02 | 0.54 | 0.05 | 93 | 1020.5 |
| 20260504204525 | 54 | 133 | 1.0 | 5.0 | 0.02 | 0.54 | 0.05 | 93 | 1020.5 |
| 20260504204004 | 55 | 133 | 0.0 | 5.0 | 0.02 | 0.54 | 0.05 | 93 | 1020.4 |
| 20260504203504 | 55 | 134 | 3.0 | 3.0 | 0.02 | 0.54 | 0.05 | 93 | 1020.5 |
| 20260504203004 | 55 | 0 | 0.0 | 0.0 | 0.02 | 0.54 | 0.05 | 93 | 1020.4 |
| 20260504202504 | 55 | 0 | 0.0 | 0.0 | 0.02 | 0.54 | 0.05 | 93 | 1020.4 |
| 20260504202004 | 55 | 0 | 0.0 | 0.0 | 0.02 | 0.54 | 0.05 | 93 | 1020.3 |
| 20260504201504 | 55 | 138 | 5.0 | 5.0 | 0.02 | 0.54 | 0.05 | 93 | 1020.3 |
| 20260504201004 | 54 | 138 | 5.0 | 5.0 | 0.02 | 0.58 | 0.05 | 93 | 1020.3 |
| 20260504200504 | 54 | 0 | 0.0 | 0.0 | 0.02 | 0.62 | 0.05 | 93 | 1020.2 |
| 20260504200004 | 54 | 0 | 0.0 | 0.0 | 0.02 | 0.63 | 0.05 | 93 | 1020.2 |
| 20260504195504 | 54 | 0 | 0.0 | 0.0 | 0.00 | 0.62 | 0.03 | 93 | 1020.3 |
| 20260504195004 | 54 | 0 | 0.0 | 0.0 | 0.00 | 0.69 | 0.03 | 92 | 1020.2 |
| 20260504194504 | 54 | 0 | 0.0 | 0.0 | 0.00 | 0.69 | 0.03 | 92 | 1020.1 |
| 20260504194004 | 54 | 0 | 0.0 | 0.0 | 0.00 | 0.70 | 0.03 | 92 | 1020.0 |
| 20260504193503 | 54 | 0 | 0.0 | 0.0 | 0.00 | 0.71 | 0.03 | 93 | 1020.0 |
| 20260504193004 | 54 | 0 | 0.0 | 0.0 | 0.00 | 0.72 | 0.03 | 93 | 1019.9 |
| 20260504192504 | 54 | 0 | 0.0 | 0.0 | 0.00 | 0.72 | 0.03 | 92 | 1019.9 |
| 20260504192004 | 54 | 0 | 0.0 | 0.0 | 0.00 | 0.78 | 0.03 | 92 | 1019.9 |
| 20260504191525 | 54 | 174 | 0.0 | 1.0 | 0.00 | 0.78 | 0.03 | 92 | 1019.9 |
| 20260504191025 | 55 | 174 | 0.0 | 1.0 | 0.00 | 0.78 | 0.03 | 92 | 1019.9 |
| 20260504190504 | 55 | 173 | 0.0 | 1.0 | 0.01 | 0.78 | 0.03 | 92 | 1019.9 |
| 20260504190004 | 55 | 174 | 0.0 | 1.0 | 0.01 | 0.79 | 0.03 | 92 | 1019.8 |
| 20260504185504 | 55 | 174 | 0.0 | 1.0 | 0.02 | 0.79 | 0.03 | 92 | 1019.8 |
| 20260504185004 | 55 | 0 | 0.0 | 0.0 | 0.02 | 0.79 | 0.03 | 92 | 1019.8 |
| 20260504184504 | 55 | 0 | 0.0 | 0.0 | 0.02 | 0.79 | 0.03 | 92 | 1019.7 |
| 20260504184004 | 56 | 174 | 0.0 | 1.0 | 0.02 | 0.80 | 0.03 | 92 | 1019.6 |
| 20260504183504 | 56 | 174 | 1.0 | 3.0 | 0.02 | 0.81 | 0.03 | 92 | 1019.6 |
| 20260504183004 | 56 | 175 | 1.0 | 5.0 | 0.02 | 0.81 | 0.03 | 92 | 1019.5 |
| 20260504182525 | 56 | 176 | 0.0 | 5.0 | 0.02 | 0.81 | 0.03 | 92 | 1019.5 |
| 20260504182003 | 56 | 0 | 0.0 | 0.0 | 0.02 | 0.81 | 0.03 | 92 | 1019.5 |
| 20260504181503 | 56 | 311 | 1.0 | 1.0 | 0.02 | 0.81 | 0.03 | 92 | 1019.5 |
| 20260504181004 | 56 | 288 | 1.0 | 5.0 | 0.02 | 0.81 | 0.03 | 92 | 1019.5 |
| 20260504180503 | 56 | 247 | 0.0 | 5.0 | 0.01 | 0.80 | 0.02 | 92 | 1019.5 |
| 20260504180004 | 56 | 137 | 0.0 | 3.0 | 0.01 | 0.80 | 0.02 | 92 | 1019.5 |
| 20260504175504 | 56 | 137 | 0.0 | 1.0 | 0.00 | 0.80 | 0.02 | 92 | 1019.5 |
| 20260504175004 | 56 | 137 | 0.0 | 1.0 | 0.00 | 0.80 | 0.02 | 92 | 1019.6 |
| 20260504174503 | 56 | 137 | 1.0 | 1.0 | 0.00 | 0.80 | 0.02 | 92 | 1019.6 |
| 20260504174004 | 56 | 138 | 1.0 | 3.0 | 0.00 | 0.80 | 0.02 | 92 | 1019.6 |
| 20260504173504 | 56 | 138 | 1.0 | 3.0 | 0.00 | 0.80 | 0.02 | 92 | 1019.5 |
| 20260504173004 | 56 | 138 | 0.0 | 3.0 | 0.00 | 0.81 | 0.02 | 92 | 1019.6 |
| 20260504172525 | 56 | 138 | 0.0 | 3.0 | 0.00 | 0.81 | 0.02 | 92 | 1019.7 |
| 20260504172004 | 56 | 138 | 0.0 | 3.0 | 0.01 | 0.81 | 0.02 | 92 | 1019.8 |
| 20260504171504 | 56 | 0 | 0.0 | 0.0 | 0.01 | 0.82 | 0.02 | 92 | 1019.7 |
| 20260504171004 | 56 | 0 | 0.0 | 0.0 | 0.01 | 0.82 | 0.02 | 92 | 1019.8 |
| 20260504170504 | 56 | 0 | 0.0 | 0.0 | 0.01 | 0.82 | 0.02 | 92 | 1019.8 |
| 20260504151004 | 54 | 88 | 4.0 | 6.0 | 0.01 | 0.83 | 0.01 | 91 | 1019.5 |
| 20260504150525 | 54 | 76 | 4.0 | 5.0 | 0.01 | 0.83 | 0.01 | 91 | 1019.5 |
| 20260504141004 | 56 | 84 | 1.0 | 3.0 | 0.00 | 0.83 | 0.83 | 90 | 1019.2 |
| 20260504140525 | 56 | 58 | 1.0 | 5.0 | 0.00 | 0.83 | 0.83 | 90 | 1019.3 |
| 20260504130504 | 57 | 0 | 0.0 | 0.0 | 0.01 | 0.83 | 0.83 | 88 | 1019.0 |
| 20260504082004 | 61 | 270 | 6.0 | 10.0 | 0.00 | 0.84 | 0.82 | 80 | 1015.8 |
| 20260504081504 | 61 | 284 | 5.0 | 10.0 | 0.00 | 0.84 | 0.82 | 80 | 1015.8 |
| 20260504081004 | 61 | 293 | 4.0 | 10.0 | 0.00 | 0.84 | 0.82 | 81 | 1015.7 |
| 20260504080504 | 61 | 298 | 5.0 | 10.0 | 0.00 | 0.84 | 0.82 | 81 | 1015.7 |
| 20260504050504 | 67 | 247 | 14.0 | 24.0 | 0.00 | 0.86 | 0.82 | 63 | 1014.1 |
| 20260504050004 | 66 | 255 | 13.0 | 23.0 | 0.00 | 0.86 | 0.82 | 65 | 1014.0 |
| 20260504045504 | 66 | 257 | 13.0 | 24.0 | 0.00 | 0.86 | 0.82 | 64 | 1014.0 |
| 20260504045004 | 67 | 252 | 12.0 | 24.0 | 0.00 | 0.86 | 0.82 | 64 | 1013.9 |
| 20260504044504 | 66 | 240 | 11.0 | 20.0 | 0.00 | 0.86 | 0.82 | 64 | 1013.8 |
| 20260504044004 | 66 | 227 | 12.0 | 20.0 | 0.00 | 0.86 | 0.82 | 66 | 1013.8 |
| 20260504043504 | 66 | 222 | 13.0 | 24.0 | 0.00 | 0.86 | 0.82 | 65 | 1013.8 |
| 20260504043004 | 66 | 224 | 14.0 | 24.0 | 0.00 | 0.86 | 0.82 | 66 | 1013.6 |
| 20260504042504 | 66 | 237 | 13.0 | 23.0 | 0.00 | 0.86 | 0.82 | 68 | 1013.7 |
| 20260504042004 | 65 | 243 | 11.0 | 25.0 | 0.00 | 0.86 | 0.82 | 67 | 1013.7 |
| 20260504041504 | 66 | 243 | 11.0 | 25.0 | 0.00 | 0.86 | 0.82 | 66 | 1013.6 |
| 20260504041004 | 66 | 249 | 12.0 | 23.0 | 0.00 | 0.86 | 0.82 | 67 | 1013.7 |
| 20260504040525 | 67 | 252 | 14.0 | 23.0 | 0.00 | 0.86 | 0.82 | 66 | 1013.6 |
| 20260504040004 | 67 | 256 | 15.0 | 24.0 | 0.00 | 0.86 | 0.82 | 67 | 1013.7 |
| 20260504035505 | 66 | 261 | 15.0 | 28.0 | 0.00 | 0.86 | 0.82 | 67 | 1013.7 |
| 20260504035004 | 66 | 259 | 14.0 | 28.0 | 0.00 | 0.86 | 0.82 | 68 | 1013.6 |
| 20260504034525 | 66 | 254 | 13.0 | 28.0 | 0.00 | 0.86 | 0.82 | 66 | 1013.7 |
| 20260504034004 | 66 | 255 | 13.0 | 24.0 | 0.00 | 0.86 | 0.82 | 67 | 1013.6 |
| 20260504033504 | 66 | 253 | 15.0 | 24.0 | 0.00 | 0.86 | 0.82 | 69 | 1013.8 |
| 20260504033004 | 66 | 248 | 15.0 | 24.0 | 0.00 | 0.86 | 0.82 | 69 | 1013.7 |
| 20260504032525 | 65 | 241 | 15.0 | 29.0 | 0.00 | 0.86 | 0.82 | 68 | 1013.7 |
| 20260504032004 | 66 | 239 | 15.0 | 29.0 | 0.00 | 0.86 | 0.82 | 68 | 1013.6 |
| 20260504031505 | 65 | 247 | 14.0 | 32.0 | 0.00 | 0.86 | 0.82 | 69 | 1013.7 |
| 20260504031004 | 66 | 250 | 13.0 | 32.0 | 0.00 | 0.86 | 0.82 | 69 | 1013.8 |
| 20260504030504 | 65 | 254 | 13.0 | 27.0 | 0.00 | 0.86 | 0.82 | 71 | 1013.7 |
| 20260504030004 | 66 | 259 | 13.0 | 25.0 | 0.05 | 0.86 | 0.82 | 71 | 1013.8 |
| 20260504025504 | 65 | 264 | 13.0 | 30.0 | 0.05 | 0.86 | 0.82 | 73 | 1013.9 |
| 20260504025003 | 65 | 264 | 12.0 | 30.0 | 0.05 | 0.86 | 0.82 | 75 | 1013.9 |
| 20260504024504 | 64 | 256 | 11.0 | 19.0 | 0.05 | 0.86 | 0.82 | 77 | 1013.9 |
| 20260504024004 | 64 | 251 | 11.0 | 19.0 | 0.05 | 0.86 | 0.82 | 80 | 1013.9 |
| 20260504023504 | 63 | 252 | 11.0 | 19.0 | 0.05 | 0.86 | 0.82 | 83 | 1013.9 |
| 20260504023004 | 62 | 262 | 11.0 | 25.0 | 0.05 | 0.86 | 0.82 | 83 | 1014.0 |
| 20260504022504 | 62 | 261 | 10.0 | 25.0 | 0.05 | 0.86 | 0.82 | 85 | 1014.1 |
| 20260504022025 | 62 | 255 | 11.0 | 19.0 | 0.05 | 0.86 | 0.82 | 87 | 1014.1 |
| 20260504021504 | 61 | 255 | 13.0 | 19.0 | 0.05 | 0.86 | 0.82 | 86 | 1014.1 |
| 20260504021025 | 60 | 261 | 14.0 | 32.0 | 0.05 | 0.86 | 0.82 | 84 | 1014.1 |
| 20260504020504 | 61 | 264 | 14.0 | 32.0 | 0.06 | 0.86 | 0.82 | 80 | 1014.2 |
| 20260504020004 | 64 | 264 | 14.0 | 24.0 | 0.02 | 0.81 | 0.77 | 78 | 1013.9 |
| 20260504015504 | 63 | 260 | 13.0 | 24.0 | 0.02 | 0.81 | 0.77 | 78 | 1013.9 |
| 20260504015004 | 63 | 257 | 13.0 | 23.0 | 0.02 | 0.81 | 0.77 | 78 | 1014.0 |